Weather History for KPEQ - January, 2014

Change the Weather History Date:

Friday, January 31, 2014

  Actual Average Record
Temperature  
Mean Temperature 60 °F -  
Max Temperature 77 °F 63 °F 84 °F (1971)
Min Temperature 42 °F 29 °F -4 °F (1949)
Degree Days  
Heating Degree Days 6    
Growing Degree Days 10 (Base 50)    
Moisture  
Dew Point 28 °F    
Average Humidity 32    
Maximum Humidity 50    
Minimum Humidity 19    
Precipitation  
Precipitation 0.00 in - - ()
Sea Level Pressure  
Sea Level Pressure 29.79 in    
Wind  
Wind Speed 7 mph (SW)    
Max Wind Speed 26 mph    
Max Gust Speed 32 mph    
Visibility 10 miles    
Events      
Averages and records for this station are not official NWS values.
T = Trace of Precipitation, MM = Missing Value Source: NWS Daily Summary

Daily Weather History Graph

Daily Weather History Graph

Search for Another Location

Airport or City:

Trip Planner

Search our weather history database for the weather conditions in past years. The results will help you decide how hot, cold, wet, or windy it might be!

Date:

Astronomy

Jan. 31, 2014 Rise Set
Actual Time 7:47 AM CST 6:28 PM CST
Civil Twilight 7:21 AM CST 6:53 PM CST
Nautical Twilight 6:52 AM CST 7:22 PM CST
Astronomical Twilight 6:23 AM CST 7:51 PM CST
Moon 8:05 AM CST (1/31) 7:46 PM CST (1/31)
Length of Visible Light 11h 32m
Length of Day
10h 41m
New Moon, 1% of the Moon is Illuminated
Jan 31
New Moon
Feb 6
First Quarter
Feb 14
Full
Feb 22
Last Quarter
Mar 1
New

Hourly Weather History & Observations

Time (CST) Temp. Windchill Dew Point Humidity Pressure Visibility Wind Dir Wind Speed Gust Speed Precip Events Conditions
12:15 AM 46.0 °F - 21.7 °F 38% 29.81 in 10.0 mi Calm Calm - N/A   Clear
12:35 AM 45.5 °F - 21.2 °F 38% 29.81 in 10.0 mi Calm Calm - N/A   Clear
12:55 AM 48.9 °F - 22.8 °F 36% 29.80 in 10.0 mi WSW 3.5 mph - N/A   Clear
1:15 AM 45.9 °F 44.6 °F 21.0 °F 37% 29.80 in 10.0 mi South 3.5 mph - N/A   Clear
1:35 AM 48.9 °F - 23.9 °F 38% 29.80 in 10.0 mi West 10.4 mph - N/A   Clear
1:55 AM 52.3 °F - 24.4 °F 34% 29.80 in 10.0 mi WSW 12.7 mph - N/A   Clear
2:15 AM 53.6 °F - 24.8 °F 33% 29.79 in 10.0 mi WSW 12.7 mph - N/A   Clear
2:35 AM 53.8 °F - 25.2 °F 33% 29.80 in 10.0 mi WSW 11.5 mph - N/A   Clear
2:55 AM 50.7 °F - 24.6 °F 36% 29.79 in 10.0 mi WSW 9.2 mph - N/A   Clear
3:15 AM 48.4 °F - 24.6 °F 39% 29.79 in 10.0 mi West 10.4 mph - N/A   Clear
3:35 AM 49.8 °F - 25.7 °F 39% 29.78 in 10.0 mi West 10.4 mph - N/A   Clear
3:55 AM 50.9 °F - 25.2 °F 37% 29.79 in 10.0 mi WSW 8.1 mph - N/A   Clear
4:15 AM 45.5 °F 42.5 °F 24.4 °F 44% 29.79 in 10.0 mi SSW 5.8 mph - N/A   Clear
4:35 AM 43.2 °F 38.4 °F 24.8 °F 48% 29.79 in 10.0 mi SSW 8.1 mph - N/A   Clear
4:55 AM 43.0 °F 38.8 °F 24.8 °F 49% 29.79 in 10.0 mi SSW 6.9 mph - N/A   Clear
5:15 AM 42.8 °F 38.0 °F 25.3 °F 50% 29.79 in 10.0 mi South 8.1 mph - N/A   Clear
5:35 AM 43.7 °F 39.7 °F 25.3 °F 48% 29.80 in 10.0 mi SSW 6.9 mph - N/A   Clear
5:55 AM 45.0 °F 41.2 °F 25.5 °F 47% 29.80 in 10.0 mi SW 6.9 mph - N/A   Clear
6:15 AM 46.4 °F 43.5 °F 25.3 °F 44% 29.82 in 10.0 mi SW 5.8 mph - N/A   Clear
6:35 AM 46.2 °F 43.3 °F 25.2 °F 44% 29.82 in 10.0 mi SW 5.8 mph - N/A   Clear
6:55 AM 43.2 °F 41.5 °F 24.8 °F 48% 29.83 in 10.0 mi SSW 3.5 mph - N/A   Clear
7:15 AM 47.1 °F - 25.5 °F 43% 29.84 in 10.0 mi West 5.8 mph - N/A   Clear
7:35 AM 49.1 °F - 26.1 °F 41% 29.84 in 10.0 mi SW 10.4 mph - N/A   Clear
7:55 AM 50.5 °F - 26.2 °F 39% 29.84 in 10.0 mi SW 9.2 mph - N/A   Clear
8:15 AM 51.1 °F - 26.6 °F 39% 29.85 in 10.0 mi SW 6.9 mph - N/A   Clear
8:35 AM 52.2 °F - 26.6 °F 37% 29.86 in 10.0 mi SSW 6.9 mph - N/A   Clear
8:55 AM 51.8 °F - 27.3 °F 39% 29.86 in 10.0 mi SSW 5.8 mph - N/A   Clear
9:15 AM 53.2 °F - 27.5 °F 37% 29.86 in 10.0 mi South 6.9 mph - N/A   Clear
9:35 AM 55.6 °F - 28.2 °F 35% 29.88 in 10.0 mi WSW 4.6 mph - N/A   Clear
9:55 AM 56.3 °F - 28.6 °F 35% 29.88 in 10.0 mi WSW 3.5 mph - N/A   Clear
10:15 AM 58.8 °F - 29.3 °F 33% 29.88 in 10.0 mi Calm Calm - N/A   Clear
10:35 AM 61.7 °F - 29.3 °F 29% 29.88 in 10.0 mi SSW 4.6 mph - N/A   Clear
10:55 AM 62.2 °F - 29.7 °F 29% 29.88 in 7.0 mi Calm Calm - N/A   Clear
11:15 AM 63.5 °F - 30.2 °F 29% 29.88 in 10.0 mi Calm Calm - N/A   Clear
11:35 AM 64.8 °F - 30.9 °F 28% 29.87 in 10.0 mi Calm Calm - N/A   Clear
11:55 AM 68.9 °F - 32.0 °F 25% 29.86 in 10.0 mi WSW 3.5 mph - N/A   Clear
12:15 PM 73.0 °F - 32.0 °F 22% 29.85 in 10.0 mi WSW 15.0 mph 19.6 mph N/A   Clear
12:35 PM 75.0 °F - 31.8 °F 21% 29.84 in 10.0 mi WSW 12.7 mph - N/A   Clear
12:55 PM 75.4 °F - 32.0 °F 20% 29.82 in 10.0 mi West 11.5 mph - N/A   Clear
1:15 PM 77.5 °F - 32.2 °F 19% 29.80 in 10.0 mi West 13.8 mph 18.4 mph N/A   Clear
1:35 PM 77.0 °F - 32.2 °F 19% 29.79 in 10.0 mi West 19.6 mph - N/A   Clear
1:55 PM 76.5 °F - 32.4 °F 20% 29.77 in 10.0 mi West 18.4 mph 25.3 mph N/A   Clear
2:15 PM 77.0 °F - 33.1 °F 20% 29.77 in 10.0 mi West 18.4 mph 26.5 mph N/A   Clear
2:35 PM 76.6 °F - 32.7 °F 20% 29.76 in 10.0 mi West 26.5 mph 32.2 mph N/A   Clear
2:55 PM 76.5 °F - 32.9 °F 20% 29.76 in 10.0 mi West 20.7 mph 29.9 mph N/A   Clear
3:15 PM 76.5 °F - 32.9 °F 20% 29.75 in 10.0 mi WSW 21.9 mph 25.3 mph N/A   Clear
3:35 PM 76.3 °F - 32.9 °F 21% 29.74 in 10.0 mi WSW 19.6 mph 23.0 mph N/A   Clear
3:55 PM 75.7 °F - 32.9 °F 21% 29.74 in 10.0 mi WSW 16.1 mph - N/A   Clear
4:15 PM 75.6 °F - 32.4 °F 21% 29.73 in 10.0 mi WSW 11.5 mph - N/A   Clear
4:35 PM 75.4 °F - 32.0 °F 20% 29.72 in 10.0 mi WSW 12.7 mph 18.4 mph N/A   Clear
4:55 PM 75.0 °F - 31.3 °F 20% 29.72 in 10.0 mi WSW 11.5 mph - N/A   Clear
5:15 PM 73.9 °F - 30.4 °F 20% 29.73 in 10.0 mi West 10.4 mph - N/A   Clear
5:35 PM 73.4 °F - 29.5 °F 20% 29.73 in 10.0 mi WSW 9.2 mph - N/A   Clear
5:55 PM 72.1 °F - 29.1 °F 20% 29.73 in 10.0 mi WSW 8.1 mph - N/A   Clear
6:15 PM 68.9 °F - 29.1 °F 23% 29.73 in 10.0 mi West 9.2 mph - N/A   Clear
6:35 PM 70.0 °F - 28.8 °F 22% 29.73 in 10.0 mi WSW 9.2 mph - N/A   Clear
6:55 PM 70.7 °F - 27.5 °F 20% 29.73 in 10.0 mi SW 10.4 mph - N/A   Clear
7:15 PM 68.9 °F - 27.1 °F 21% 29.73 in 10.0 mi SW 8.1 mph - N/A   Clear
7:35 PM 65.7 °F - 27.3 °F 24% 29.73 in 10.0 mi SSW 10.4 mph - N/A   Clear
7:55 PM 67.1 °F - 26.6 °F 22% 29.73 in 10.0 mi SSW 8.1 mph - N/A   Clear
8:15 PM 65.7 °F - 26.6 °F 23% 29.73 in 10.0 mi SSW 5.8 mph - N/A   Clear
8:35 PM 61.2 °F - 26.8 °F 27% 29.74 in 10.0 mi SW 5.8 mph - N/A   Clear
8:55 PM 62.1 °F - 28.9 °F 29% 29.75 in 10.0 mi SSE 4.6 mph - N/A   Clear
9:15 PM 56.1 °F - 27.9 °F 34% 29.75 in 10.0 mi SE 8.1 mph - N/A   Clear
9:35 PM 57.4 °F - 29.3 °F 34% 29.74 in 10.0 mi SSE 5.8 mph - N/A   Clear
9:55 PM 55.2 °F - 29.5 °F 37% 29.74 in 10.0 mi South 5.8 mph - N/A   Clear
10:15 PM 56.3 °F - 29.5 °F 36% 29.75 in 10.0 mi South 3.5 mph - N/A   Clear
10:35 PM 54.1 °F - 28.4 °F 37% 29.75 in 10.0 mi North 8.1 mph - N/A   Clear
10:55 PM 50.9 °F - 29.3 °F 43% 29.76 in 10.0 mi NW 5.8 mph - N/A   Clear
11:15 PM 51.8 °F - 28.9 °F 41% 29.76 in 10.0 mi WNW 4.6 mph - N/A   Clear
11:35 PM 56.3 °F - 29.8 °F 36% 29.76 in 10.0 mi NNW 5.8 mph - N/A   Clear
11:55 PM 52.0 °F - 29.1 °F 41% 29.76 in 10.0 mi NNW 3.5 mph - N/A   Clear